Location: Byszew
(52.1813°N, 19.2693°E)
Time: 13:07:50
(UTC+00:00)

Okean O Rocket - Pass Details

Date: 03 March 2021
Orbit: 623 x 643 km, 98.2° (Epoch: 12 April)

Event Time Altitude Azimuth Distance (km) Brightness Sun altitude
Rises 17:08:46 0° 194° (SSW) 2,896 5.2 -7.3°
Reaches altitude 10° 17:11:12 10° 206° (SSW) 1,994 4.6 -7.7°
Maximum altitude 17:14:55 27° 265° (W) 1,197 4.1 -8.3°
Drops below altitude 10° 17:18:40 10° 325° (NW) 2,009 4.7 -8.8°
Sets 17:21:09 0° 337° (NNW) 2,923 5.4 -9.2°
